This demonstration page uses our WeatherBlox Daily Observations layout. Learn more.

Left ArrowRight Arrow

Hourly Observations for March 4, 2018

Temp ( °F °C ) Dew Point ( °F °C ) Humidity (%) Winds ( mph kmh ) Pressure ( in mb ) Visibility ( mi km ) Precip ( " mm )
12:54 am 00:54 Clear 56 13.3 43 6.1 62 62 S 22 35 29.97 1015 10 16 0.00 0.00
1:54 am 01:54 Clear 56 13.3 42 5.6 60 60 S 17 28 29.96 1014 10 16 0.00 0.00
2:54 am 02:54 Clear 54 12.2 42 5.6 64 64 SSE 15 24 29.95 1014 10 16 0.00 0.00
3:54 am 03:54 Clear 54 12.2 41 5 62 62 SSE 16 26 29.93 1014 10 16 0.00 0.00
4:54 am 04:54 Clear 50 10 40 4.4 68 68 SE 14 22 29.93 1014 10 16 0.00 0.00
5:54 am 05:54 Clear 48 8.9 38 3.3 68 68 SSE 16 26 29.93 1014 10 16 0.00 0.00
6:40 am 06:40 Mostly Cloudy 48 8.9 37 2.8 66 66 SE 17 28 29.97 1015 10 16 0.00 0.00
6:54 am 06:54 Cloudy 48 8.9 37 2.8 66 66 SSE 17 28 29.94 1014 10 16 0.00 0.00
7:54 am 07:54 Cloudy 49 9.4 36 2.2 61 61 SSE 18 30 29.93 1014 10 16 0.00 0.00
8:54 am 08:54 Cloudy 50 10 35 1.7 57 57 SSE 23 37 29.91 1013 10 16 0.00 0.00
9:23 am 09:23 Cloudy 51 10.6 35 1.7 54 54 SE 18 30 29.91 1013 10 16 0.00 0.00
9:54 am 09:54 Cloudy 53 11.7 36 2.2 52 52 SE 22 35 29.91 1013 10 16 0.00 0.00
10:54 am 10:54 Cloudy 54 12.2 38 3.3 55 55 SSE 20 31 29.88 1012 10 16 0.00 0.00
11:54 am 11:54 Cloudy 56 13.3 40 4.4 55 55 SSE 17 28 29.85 1011 10 16 0.00 0.00
12:54 pm 12:54 Cloudy 60 15.6 41 5 50 50 SE 17 28 29.82 1010 10 16 0.00 0.00
1:54 pm 13:54 Sunny 65 18.3 44 6.7 47 47 SSE 23 37 29.76 1008 10 16 0.00 0.00
2:54 pm 14:54 Partly Cloudy 67 19.4 45 7.2 45 45 SSE 26 43 29.71 1006 10 16 0.00 0.00
3:54 pm 15:54 Cloudy 66 18.9 46 7.8 49 49 SE 25 41 29.71 1006 10 16 0.00 0.00
4:54 pm 16:54 Cloudy 66 18.9 46 7.8 49 49 SE 18 30 29.70 1006 10 16 0.00 0.00
5:54 pm 17:54 Sunny 64 17.8 47 8.3 54 54 SE 23 37 29.69 1005 10 16 0.00 0.00
6:54 pm 18:54 Mostly Cloudy 62 16.7 46 7.8 56 56 SE 23 37 29.69 1005 10 16 0.00 0.00
7:54 pm 19:54 Mostly Cloudy 60 15.6 47 8.3 62 62 SSE 26 43 29.69 1005 10 16 0.00 0.00
8:54 pm 20:54 Mostly Cloudy 58 14.4 47 8.3 67 67 SSE 18 30 29.70 1006 10 16 0.00 0.00
9:35 pm 21:35 Cloudy 57 13.9 48 8.9 72 72 SSE 26 43 29.68 1005 10 16 0.00 0.00
9:54 pm 21:54 Cloudy 57 13.9 48 8.9 72 72 SE 24 39 29.69 1006 10 16 0.00 0.00
10:54 pm 22:54 Cloudy 56 13.3 47 8.3 72 72 SSE 26 43 29.67 1005 10 16 0.00 0.00
11:10 pm 23:10 Cloudy 55 12.8 48 8.9 77 77 SSE 23 37 29.68 1005 10 16 0.00 0.00
11:54 pm 23:54 Cloudy 54 12.2 48 8.9 80 80 SE 16 26 29.65 1004 10 16 0.00 0.00

Powered by AerisWeather